FW0273 Weather Reports


Display with metric or nautical units.
time (UTC)temp
F
wind
direction
speed
MPH
gust
MPH
rain 1hr
in
rain 24hr
in
rain mn
in
humidity
%
barometer
mb
20260505183244 83 279 3.0 8.0 0.00 0.00 0.00 64 1005.8
20260505182252 83 279 3.0 8.0 0.00 0.00 0.00 64 1005.8
20260505181251 83 74 1.0 13.0 0.00 0.00 0.00 64 1005.7
20260505180250 82 303 2.0 7.0 0.00 0.00 0.00 67 1005.8
20260505175249 82 273 2.0 9.0 0.00 0.00 0.00 67 1005.8
20260505174247 82 174 2.0 9.0 0.00 0.00 0.00 67 1005.8
20260505173246 81 223 6.0 7.0 0.00 0.00 0.00 68 1005.9
20260505172325 81 203 6.0 9.0 0.00 0.00 0.00 68 1005.9
20260505171244 82 148 5.0 9.0 0.00 0.00 0.00 68 1005.9
20260505170313 81 226 2.0 9.0 0.00 0.00 0.00 69 1005.9
20260505165251 81 221 3.0 9.0 0.00 0.00 0.00 69 1005.8
20260505164250 80 217 6.0 7.0 0.00 0.00 0.00 70 1005.8
20260505163249 80 170 2.0 4.0 0.00 0.00 0.00 70 1005.7
20260505162247 80 157 2.0 8.0 0.00 0.00 0.00 70 1005.6
20260505161246 79 42 1.0 8.0 0.00 0.00 0.00 71 1005.3
20260505160245 79 221 4.0 11.0 0.00 0.00 0.00 73 1005.3
20260505153251 77 195 2.0 9.0 0.00 0.00 0.00 75 1005.7
20260505152250 77 195 1.0 9.0 0.00 0.00 0.00 76 1005.7
20260505151249 77 0.0 7.0 0.00 0.00 0.00 76 1005.7
20260505150247 76 205 3.0 8.0 0.00 0.00 0.00 79 1005.6
20260505140249 73 235 7.0 8.0 0.00 0.00 0.00 82 1005.5
20260505130251 72 138 1.0 8.0 0.00 0.00 0.00 84 1005.4
20260505124309 72 190 2.0 9.0 0.00 0.00 0.00 84 1004.8
20260505123308 72 156 3.0 8.0 0.00 0.00 0.00 84 1004.9
20260505122246 72 151 2.0 8.0 0.00 0.00 0.00 84 1004.9
20260505121245 72 118 1.0 3.0 0.00 0.00 0.00 84 1004.9
20260505120304 71 181 3.0 7.0 0.00 0.00 0.00 84 1004.7
20260505115252 71 176 3.0 9.0 0.00 0.00 0.00 84 1004.6
20260505114251 71 159 2.0 9.0 0.00 0.00 0.00 84 1004.6
20260505113249 71 135 2.0 6.0 0.00 0.00 0.00 84 1004.5
20260505112308 71 127 2.0 6.0 0.00 0.00 0.00 84 1004.5
20260505111247 71 117 3.0 6.0 0.00 0.00 0.00 84 1004.4
20260505110246 71 289 1.0 9.0 0.00 0.00 0.00 83 1004.3
20260505101249 72 177 5.0 9.0 0.00 0.00 0.00 83 1004.6
20260505100248 72 200 4.0 6.0 0.00 0.00 0.00 83 1004.7
20260505095247 71 179 4.0 8.0 0.00 0.00 0.00 83 1004.7
20260505094246 71 134 4.0 8.0 0.00 0.00 0.00 84 1004.8
20260505093245 71 105 2.0 4.0 0.00 0.00 0.00 84 1005.0
20260505092244 71 104 2.0 8.0 0.00 0.00 0.00 84 1005.0
20260505091252 71 289 1.0 8.0 0.00 0.00 0.00 84 1005.0
20260505090251 71 196 5.0 8.0 0.00 0.00 0.00 84 1005.0
20260505085310 71 193 4.0 9.0 0.00 0.00 0.00 83 1005.0
20260505084248 71 159 1.0 9.0 0.00 0.00 0.00 83 1005.0
20260505083246 71 178 2.0 5.0 0.00 0.00 0.00 83 1005.0
20260505082326 71 178 2.0 5.0 0.00 0.00 0.00 83 1005.0
20260505081244 71 175 9.0 10.0 0.00 0.00 0.00 82 1005.3
20260505080253 72 97 2.0 8.0 0.00 0.00 0.00 82 1005.5
20260505075251 72 120 3.0 8.0 0.00 0.00 0.00 81 1005.6
20260505074310 72 143 4.0 7.0 0.00 0.00 0.00 81 1005.9
20260505073249 72 90 3.0 7.0 0.00 0.00 0.00 80 1006.1
20260505072248 72 84 2.0 7.0 0.00 0.00 0.00 80 1006.1
20260505071306 73 142 5.0 9.0 0.00 0.00 0.00 77 1006.3
20260505070245 73 142 5.0 9.0 0.00 0.00 0.00 77 1006.3
20260505065244 73 142 5.0 9.0 0.00 0.00 0.00 77 1006.3
20260505064253 73 142 5.0 9.0 0.00 0.00 0.00 77 1006.3
20260505063251 73 142 5.0 9.0 0.00 0.00 0.00 77 1006.3
20260505062251 73 142 5.0 9.0 0.00 0.00 0.00 77 1006.3
20260505061259 73 157 5.0 9.0 0.00 0.00 0.00 77 1006.4
20260505055353 73 196 4.0 9.0 0.00 0.00 0.00 76 1006.6
20260505054252 73 222 4.0 6.0 0.00 0.00 0.00 75 1006.7
20260505053251 73 129 2.0 11.0 0.00 0.00 0.00 74 1006.6
20260505052249 73 171 2.0 11.0 0.00 0.00 0.00 74 1006.7
20260505051308 73 234 3.0 7.0 0.00 0.00 0.00 74 1006.9
20260505050247 74 98 2.0 8.0 0.00 0.00 0.00 73 1006.7
20260505041250 74 277 3.0 8.0 0.00 0.00 0.00 71 1007.1
20260505040309 74 109 3.0 7.0 0.00 0.00 0.00 71 1007.0
20260505035248 74 106 3.0 12.0 0.00 0.00 0.00 71 1007.1
20260505034247 74 101 4.0 12.0 0.00 0.00 0.00 71 1007.2
20260505033245 74 103 8.0 8.0 0.00 0.00 0.00 70 1007.2
20260505032244 74 104 6.0 8.0 0.00 0.00 0.00 70 1007.1
20260505031253 75 129 1.0 8.0 0.00 0.00 0.00 70 1007.1
20260505030252 75 149 1.0 7.0 0.00 0.00 0.00 70 1007.3
20260505025250 75 122 1.0 7.0 0.00 0.00 0.00 69 1007.2
20260505024249 75 95 2.0 6.0 0.00 0.00 0.00 69 1007.0
20260505023308 75 167 4.0 4.0 0.00 0.00 0.00 69 1007.0
20260505022246 75 161 3.0 4.0 0.00 0.00 0.00 68 1006.9
20260505021245 76 99 1.0 4.0 0.00 0.00 0.00 67 1006.9
20260505020244 76 209 1.0 8.0 0.00 0.00 0.00 67 1006.9
20260505015252 76 271 1.0 12.0 0.00 0.00 0.00 66 1006.9
20260505014312 76 333 2.0 12.0 0.00 0.00 0.00 66 1007.0
20260505013311 76 162 5.0 7.0 0.00 0.00 0.00 65 1006.8
20260505012249 77 155 4.0 11.0 0.00 0.00 0.00 65 1006.8
20260505011248 77 120 2.0 11.0 0.00 0.00 0.00 64 1006.7
20260505010246 77 141 3.0 8.0 0.00 0.00 0.00 63 1006.8
20260505005245 77 138 3.0 11.0 0.00 0.00 0.00 63 1006.8
20260505004244 78 132 3.0 11.0 0.00 0.00 0.00 63 1006.9
20260505003253 78 117 3.0 8.0 0.00 0.00 0.00 61 1007.0
20260505002251 79 140 3.0 9.0 0.00 0.00 0.00 61 1007.0
20260505001250 79 192 3.0 9.0 0.00 0.00 0.00 60 1007.0
20260505000309 79 233 15.0 15.0 0.00 0.00 0.00 60 1007.1
20260504235248 79 229 11.0 15.0 0.00 0.00 0.00 59 1007.1
20260504234246 79 148 2.0 9.0 0.00 0.00 0.00 59 1007.1
20260504233305 80 113 8.0 11.0 0.00 0.00 0.00 57 1007.3
20260504232244 80 113 8.0 11.0 0.00 0.00 0.00 57 1007.3
20260504231252 81 65 1.0 14.0 0.00 0.00 0.00 56 1007.4
20260504230251 81 111 3.0 10.0 0.00 0.00 0.00 56 1007.6
20260504225250 82 139 3.0 11.0 0.00 0.00 0.00 56 1007.6
20260504224248 82 184 4.0 11.0 0.00 0.00 0.00 54 1007.4
20260504223247 82 76 5.0 9.0 0.00 0.00 0.00 54 1007.6
20260504222246 82 72 4.0 14.0 0.00 0.00 0.00 54 1007.7
20260504221245 82 53 2.0 14.0 0.00 0.00 0.00 55 1007.9
20260504220243 82 171 9.0 9.0 0.00 0.00 0.00 55 1008.1
20260504215253 82 171 9.0 9.0 0.00 0.00 0.00 55 1008.1
20260504214251 82 80 2.0 11.0 0.00 0.00 0.00 54 1008.2
20260504213249 82 158 3.0 12.0 0.00 0.00 0.00 54 1008.5
20260504212248 82 143 5.0 14.0 0.00 0.00 0.00 54 1008.6
20260504211247 82 132 8.0 14.0 0.00 0.00 0.00 53 1008.8
20260504210246 82 88 5.0 13.0 0.00 0.00 0.00 52 1009.0
20260504205244 82 86 4.0 13.0 0.00 0.00 0.00 52 1009.2
20260504204244 82 78 3.0 10.0 0.00 0.00 0.00 52 1009.4
20260504203252 82 188 4.0 10.0 0.00 0.00 0.00 51 1009.8
20260504202251 82 207 4.0 10.0 0.00 0.00 0.00 51 1009.9
20260504201250 82 266 3.0 10.0 0.00 0.00 0.00 51 1010.0
20260504200249 81 348 3.0 9.0 0.00 0.00 0.00 51 1010.4
20260504195247 81 333 4.0 11.0 0.00 0.00 0.00 51 1010.4
20260504194246 80 171 5.0 11.0 0.00 0.00 0.00 52 1010.5
20260504193305 81 173 7.0 17.0 0.00 0.00 0.00 51 1010.8
20260504192243 81 173 7.0 17.0 0.00 0.00 0.00 51 1010.8
20260504191313 81 338 3.0 15.0 0.00 0.00 0.00 51 1010.9
20260504190251 80 128 9.0 12.0 0.00 0.00 0.00 50 1011.0
20260504185250 79 133 8.0 12.0 0.00 0.00 0.00 50 1011.1
20260504184249 79 150 6.0 7.0 0.00 0.00 0.00 50 1011.3